SCP
4 3 2 2 3 5 5 5 6 3 5 4 3 2 2 1 1 1 1 1 1 0
4 4 5 4 4 5 5 6 8 4 3 2 2 2 2 2 1 2 2 1 3 1
3 3 3 3 5 3 3 3 3 2 2 1 1 1 1 1 1 3 2 1 2 2
0 1 3 3 3 3 3 3 2 2 1 1 1 1 1 0 0 0 0 2 2 2
0 0 1 2 2 2 2 2 2 2 1 1 0 0 0 0 0 0 0 1 1 1
0 0 0 1 1 2 1 1 1 1 1 0 0 0 0 0 0 0 0 0 1 0
0 0 0 0 0 0 1 1 1 1 1 1 1 0 0 0 0 0 0 0 0 0
0 -0 0 0 0 0 1 1 1 1 1 1 1 0 0 0 0 0 0 0 0 0
0 0 0 0 0 0 0 0 1 1 1 1 0 0 0 0 0 0 0 0 0 0
0 0 0 0 0 0 0 0 0 0 1 0 1 0 0 0 0 0 0 0 0 0
0 0 0 0 0 0 0 0 0 0 0 0 0 0 0 0 0 0 0 0 0 0
0 0 0 0 0 0 0 0 0 0 0 0 0 0 0 0 0 0 0 0 0 0
0 0 0 1 1 0 1 0 0 0 0 0 0 0 0 0 0 0 0 0 0 0
0 0 0 1 1 1 1 0 0 0 0 0 0 0 0 0 0 0 0 1 0 0
Wind_Speed_500mb
17 22 27 29 39 36 45 45 44 44 54 62 56 60 64 57 53 51 40 32 37 35
18 19 21 26 33 49 44 49 54 56 55 59 60 65 65 66 67 66 62 52 43 42
28 27 21 27 28 33 40 46 54 53 54 53 52 53 55 51 59 80 81 66 54 48
32 31 22 19 18 26 36 40 39 40 37 37 40 48 53 47 52 75 74 67 59 57
32 29 32 21 18 23 32 33 38 39 35 37 37 43 51 48 50 61 68 63 58 56
29 29 28 27 28 20 18 34 45 43 41 36 38 38 37 34 36 46 58 54 54 48
24 24 26 25 22 24 23 29 47 35 38 37 35 36 36 35 36 36 59 64 54 46
23 22 23 25 21 19 18 24 24 34 31 35 35 34 36 39 34 34 43 63 65 62
26 20 22 21 21 22 18 18 23 25 32 34 44 40 51 50 29 26 42 50 58 63
27 27 23 22 21 21 22 22 19 19 29 33 41 43 46 60 65 65 65 64 68 73
32 33 28 25 22 22 21 22 29 30 29 30 31 38 47 53 59 68 65 66 73 67
38 37 37 35 27 27 24 22 22 23 27 33 38 35 44 42 54 60 59 60 66 69
41 41 41 37 34 31 32 24 23 26 29 32 34 34 40 46 48 55 60 62 64 62
45 45 44 47 45 38 35 29 29 27 33 34 29 45 45 45 49 54 56 61 69 69
Wind_Direction_500mb
247 259 248 237 235 243 235 229 226 230 207 221 227 224 225 228 229 228 232 242 247 248
328 260 235 246 240 235 230 224 218 225 228 228 227 231 238 237 238 232 230 224 224 255
12 344 299 255 246 248 241 239 231 233 251 244 243 242 244 244 246 240 231 221 213 218
10 0 348 320 264 251 255 244 240 236 226 222 228 230 233 244 252 238 228 226 217 224
357 359 356 341 319 275 242 225 208 206 232 231 227 237 245 254 253 241 229 221 221 224
350 351 353 353 345 308 265 217 218 237 251 239 240 245 243 242 249 241 229 231 231 229
329 340 342 342 345 341 317 270 250 248 254 245 240 240 235 238 245 247 229 230 225 228
307 314 327 332 337 336 332 324 294 259 249 239 243 249 242 230 250 246 229 219 231 235
283 299 306 317 327 331 321 324 321 300 274 267 249 239 249 240 244 249 243 240 234 239
284 270 278 296 309 313 318 320 313 301 306 295 274 265 257 249 250 258 260 256 254 267
277 275 270 269 286 295 308 316 322 317 308 291 292 291 268 263 261 259 261 257 257 256
273 272 274 257 269 278 282 292 300 303 298 295 296 288 290 283 263 263 261 257 254 254
271 267 266 271 258 261 271 284 286 290 299 296 296 295 282 292 281 265 262 262 257 257
270 268 264 262 255 255 261 273 281 289 297 305 304 285 278 270 278 264 265 263 262 263
Wind_Speed_850mb
17 22 27 29 39 36 45 45 44 44 54 62 56 60 64 57 53 51 40 32 37 35
18 19 21 26 33 49 44 49 54 56 55 59 60 65 65 66 67 66 62 52 43 42
28 27 21 27 28 33 40 46 54 53 54 53 52 53 55 51 59 80 81 66 54 48
32 31 22 19 18 26 36 40 39 40 37 37 40 48 53 47 52 75 74 67 59 57
32 29 32 21 18 23 32 33 38 39 35 37 37 43 51 48 50 61 68 63 58 56
29 29 28 27 28 20 18 34 45 43 41 36 38 38 37 34 36 46 58 54 54 48
24 24 26 25 22 24 23 29 47 35 38 37 35 36 36 35 36 36 59 64 54 46
23 22 23 25 21 19 18 24 24 34 31 35 35 34 36 39 34 34 43 63 65 62
26 20 22 21 21 22 18 18 23 25 32 34 44 40 51 50 29 26 42 50 58 63
27 27 23 22 21 21 22 22 19 19 29 33 41 43 46 60 65 65 65 64 68 73
32 33 28 25 22 22 21 22 29 30 29 30 31 38 47 53 59 68 65 66 73 67
38 37 37 35 27 27 24 22 22 23 27 33 38 35 44 42 54 60 59 60 66 69
41 41 41 37 34 31 32 24 23 26 29 32 34 34 40 46 48 55 60 62 64 62
45 45 44 47 45 38 35 29 29 27 33 34 29 45 45 45 49 54 56 61 69 69
Wind_Direction_850mb
247 259 248 237 235 243 235 229 226 230 207 221 227 224 225 228 229 228 232 242 247 248
328 260 235 246 240 235 230 224 218 225 228 228 227 231 238 237 238 232 230 224 224 255
12 344 299 255 246 248 241 239 231 233 251 244 243 242 244 244 246 240 231 221 213 218
10 0 348 320 264 251 255 244 240 236 226 222 228 230 233 244 252 238 228 226 217 224
357 359 356 341 319 275 242 225 208 206 232 231 227 237 245 254 253 241 229 221 221 224
350 351 353 353 345 308 265 217 218 237 251 239 240 245 243 242 249 241 229 231 231 229
329 340 342 342 345 341 317 270 250 248 254 245 240 240 235 238 245 247 229 230 225 228
307 314 327 332 337 336 332 324 294 259 249 239 243 249 242 230 250 246 229 219 231 235
283 299 306 317 327 331 321 324 321 300 274 267 249 239 249 240 244 249 243 240 234 239
284 270 278 296 309 313 318 320 313 301 306 295 274 265 257 249 250 258 260 256 254 267
277 275 270 269 286 295 308 316 322 317 308 291 292 291 268 263 261 259 261 257 257 256
273 272 274 257 269 278 282 292 300 303 298 295 296 288 290 283 263 263 261 257 254 254
271 267 266 271 258 261 271 284 286 290 299 296 296 295 282 292 281 265 262 262 257 257
270 268 264 262 255 255 261 273 281 289 297 305 304 285 278 270 278 264 265 263 262 263